Satellite: RS-38 Catalog number: 35869 Epoch time: 11328.71795382 Element set: 908 Inclination: 098.6826 deg RA of node: 021.6140 deg Eccentricity: 0.0003991 Arg of perigee: 293.4720 deg Mean anomaly: 066.6037 deg Mean motion: 14.22037435 rev/day Decay rate: 1.06e-06 rev/day^2 Epoch rev: 11341 Checksum: 304
Satellite: ARISSAT1 Catalog number: 37772 Epoch time: 11328.76565514 Element set: 348 Inclination: 051.6337 deg RA of node: 067.0376 deg Eccentricity: 0.0004313 Arg of perigee: 050.3415 deg Mean anomaly: 087.3395 deg Mean motion: 15.81126381 rev/day Decay rate: 2.57287e-03 rev/day^2 Epoch rev: 1763 Checksum: 304
Satellite: SRMSAT Catalog number: 37839 Epoch time: 11327.82303341 Element set: 0037 Inclination: 019.9623 deg RA of node: 168.3689 deg Eccentricity: 0.0019255 Arg of perigee: 111.3391 deg Mean anomaly: 248.9070 deg Mean motion: 14.11994545 rev/day Decay rate: 6.19e-06 rev/day^2 Epoch rev: 00604 Checksum: 298
Satellite: JUGNU Catalog number: 37841 Epoch time: 11327.80975646 Element set: 33 Inclination: 019.9728 deg RA of node: 169.2965 deg Eccentricity: 0.0011139 Arg of perigee: 086.3993 deg Mean anomaly: 273.7725 deg Mean motion: 14.10089676 rev/day Decay rate: 2.64e-06 rev/day^2 Epoch rev: 602 Checksum: 319
/EX
participants (1)
-
Ray Hoad